{"data":{"norad_id":52631,"epoch":"2026-05-25T02:00:58.413024Z","epoch_age_seconds":71003,"freshness":"FRESH","line1":"1 52631U 22052AK  26145.08400941  .00000309  00000+0  37519-4 0  9992","line2":"2 52631  53.2164 286.1791 0001343  91.1404 268.9742 15.08831571222535","mean_motion":15.08831571,"eccentricity":0.0001343,"inclination_deg":53.2164,"raan_deg":286.1791,"arg_perigee_deg":91.1404,"mean_anomaly_deg":268.9742,"bstar":3.7519e-5,"rev_number":22253,"period_min":95.438087834126,"perigee_km":538.8400783686,"apogee_km":540.69822796134,"semimajor_km":6917.906153165,"source":"CELESTRAK","updated_at":"2026-05-25T13:38:17.203982Z"}}